Regional Weather Roundup
Issued by NWS

Home | Current Version | Previous Version | Graphics & Text | Print | Product List | Glossary On
Versions: 1 2 3 4 5 6 7 8 9 10 11 12 13 14 15 16 17 18 19 20 21 22 23 24 25 26 27
000
ASUS45 KTFX 260410
RWRMT
MONTANA REGIONAL WEATHER ROUNDUP
NATIONAL WEATHER SERVICE GREAT FALLS MT
1000 PM MDT THU AUG 25 2016

NOTE: "FAIR" INDICATES FEW OR NO CLOUDS BELOW 12000 FEET WITH NO
SIGNIFICANT WEATHER AND/OR OBSTRUCTIONS TO VISIBILITY.

MTZ001>007-043-260500-
WEST OF THE DIVIDE

CITY           SKY/WX    TMP DP  RH WIND       PRES   REMARKS
KALISPELL      MOCLDY    59  43  55 N16       30.13R
MISSOULA       PTCLDY    62  33  33 W8        30.10R
BUTTE          CLOUDY    58  31  35 E13       30.20R
MULLAN PASS    PTCLDY    55  28  35 SE7       30.22R
DEER LODGE       N/A     57  34  41 NW3       30.20R
EUREKA           N/A     64  43  45 E8        30.15R
HAMILTON         N/A     57  36  44 CALM      30.10R
LIBBY            N/A     64  36  34 CALM      30.09R
PLAINS           N/A     59  40  49 CALM      30.09R
RONAN            N/A     63  47  55 N3        30.14S
THOMPSON FALLS   N/A     67  34  29 E5        30.11
$$

MTZ008-052>055-260500-
SOUTHWEST MONTANA

CITY           SKY/WX    TMP DP  RH WIND       PRES   REMARKS
BOZEMAN        CLOUDY    56  36  47 SW3       30.17R
DILLON         CLOUDY    56  29  35 E10       30.15R
W YELLOWSTONE  CLOUDY    54  27  35 NE7       30.22R
ENNIS          CLEAR     54  28  37 N13       30.21S
THREE FORKS      N/A     52   8  17 CALM      30.14R
TWIN BRIDGES     N/A     59  28  30 N9        30.12R
$$

MTZ009-010-012-014-046-048-049-054-260500-
EAST SLOPES AND CENTRAL MONTANA

CITY           SKY/WX    TMP DP  RH WIND       PRES   REMARKS
CUT BANK       CLOUDY    51  45  79 NW9       30.21S
GREAT FALLS    PTCLDY    58  38  47 N10       30.17R
MALMSTROM AFB  CLEAR     60  41  49 NE10      30.17R
HELENA         PTCLDY    61  36  39 S5        30.16R
CHOTEAU          N/A     57  43  58 N12       30.22S
CONRAD           N/A     54  49  83 NW6       30.21R
$$

MTZ011-013-016-021-045-047-050-051-260500-
NORTH CENTRAL MONTANA

CITY           SKY/WX    TMP DP  RH WIND       PRES   REMARKS
HAVRE          CLOUDY    61  44  53 CALM      30.13R
LEWISTOWN      CLOUDY    58  41  53 CALM      30.18S
N BAR RANCH    CLOUDY    55  37  50 W3        30.21S
CHINOOK          N/A     59  50  72 CALM      30.13S
$$

MTZ017>020-022>027-061-062-260500-
NORTHEAST MONTANA

CITY           SKY/WX    TMP DP  RH WIND       PRES   REMARKS
GLASGOW        CLOUDY    57  43  59 N5        30.10S
JORDAN           N/A     55  36  48 E3        30.12S
SIDNEY         CLEAR     52  42  69 S3        30.10S
WOLF POINT     CLOUDY    62  46  55 S5        30.10S
POPLAR           N/A     63  43  48 S3        30.10S
SCOBEY           N/A     57  42  57 W6        30.10R
$$

MTZ028>42-056>058-260500-
SOUTHCENTRAL AND SOUTHEAST MONTANA

CITY           SKY/WX    TMP DP  RH WIND       PRES   REMARKS
BAKER          MOCLDY    54  39  57 SW5       30.18S
BILLINGS       CLOUDY    61  39  44 E7        30.15S
LIVINGSTON     CLOUDY    58  35  42 E15G21    30.16R
MILES CITY     CLEAR     60  36  40 S7        30.14F
EKALAKA          N/A     50  35  56 CALM      30.15F
FORSYTH          N/A     55  39  54 CALM      30.14S
LAUREL           N/A     57  37  47 CALM      30.13S
ROUNDUP          N/A     58  36  43 CALM      30.06S
$$

REGIONAL REPORTS...DAKOTAS

CITY           SKY/WX    TMP DP  RH WIND       PRES   REMARKS
WILLISTON      CLOUDY    60  40  47 W5        30.09S
MINOT          CLEAR     57  42  57 S5        30.06S
DICKINSON      CLEAR     52  40  63 SW5       30.13S
CROSBY         MOCLDY    55  45  67 W6        30.09S
WATFORD CITY     N/A     54  39  58 SW6       30.11S
BISMARCK       CLEAR     54  47  77 CALM      30.13R
GRAND FORKS    CLEAR     52  49  89 SW7       30.04S
FARGO          MOCLDY    58  50  75 SW7       30.08R
BUFFALO SD       N/A     58  39  49 SE5       30.12F
RAPID CITY     CLEAR     50  44  80 CALM      30.19F
$$

REGIONAL REPORTS...WYOMING/IDAHO/WASHINGTON

CITY           SKY/WX    TMP DP  RH WIND       PRES   REMARKS
GILLETTE       CLOUDY    53  39  59 S6        30.19S
SHERIDAN       CLEAR     53  44  71 CALM      30.17R
BUFFALO WY     CLOUDY    58  41  53 S5        30.21F
CODY           CLOUDY    57  43  58 CALM      30.19S
YELLOWSTONE LA   N/A     48  32  53 CALM      30.28R
IDAHO FALLS    CLEAR     57  37  47 CALM      30.06S
SALMON         CLEAR     61  34  36 CALM      30.05R
BOISE          CLEAR     72  38  29 NE3       29.98R
SPOKANE        MOCLDY    76  35  22 E5        30.03S
$$

REGIONAL REPORTS...ALBERTA

CITY           SKY/WX    TMP DP  RH WIND       PRES   REMARKS
EDMONTON       PTCLDY    54  50  87 W6        30.13F
CALGARY        LGT RAIN  52  46  82 NW9       30.21F
LETHBRIDGE     MOCLDY    52  50  93 W16       30.20R
MEDICINE HAT   CLOUDY    55  52  88 W12       30.13R
WATERTON GATE    N/A     50  46  87 NE3         N/A
CARDSTON         N/A     52  50  93 W5          N/A
MILK RIVER       N/A     50  46  87 NW8         N/A
ONEFOUR          N/A     54  48  82 NW9         N/A
$$

REGIONAL REPORTS...SASKATCHEWAN

CITY           SKY/WX    TMP DP  RH WIND       PRES   REMARKS
SWIFT CURRENT  CLOUDY    55  52  88 W5        30.07S
REGINA         MOCLDY    55  52  88 SW6       30.05F
SASKATOON      MOCLDY    55  54  94 VRB2      30.00S
CYPRESS HILLS    N/A     46  43  87 NW5         N/A
VAL MARIE        N/A     54  48  82 S3          N/A
ROCKGLEN         N/A     54  46  76 W2          N/A
ASSINIBOIA       N/A     54  52  94 NW6         N/A
$$




USA.gov is the U.S. government's official web portal to all federal, state and local government web resources and services.